Change the Weather History Date:

Saturday, August 3, 2013

  Actual Average Record
Temperature  
Mean Temperature 33 °F -  
Max Temperature 35 °F - - ()
Min Temperature 31 °F - - ()
Degree Days  
Heating Degree Days 32    
Moisture  
Dew Point 31 °F    
Average Humidity 89    
Maximum Humidity 100    
Minimum Humidity 80    
Precipitation  
Precipitation 0.00 in - - ()
Sea Level Pressure  
Sea Level Pressure 30.06 in    
Wind  
Wind Speed 8 mph ()    
Max Wind Speed 22 mph    
Max Gust Speed 25 mph    
T = Trace of Precipitation, MM = Missing Value Source: Averaged Metar Reports

Daily Weather History Graph

Daily Weather History Graph

Search for Another Location

Airport or City:

Trip Planner

Search our weather history database for the weather conditions in past years. The results will help you decide how hot, cold, wet, or windy it might be!

Date:

Astronomy

Dec. 31, 1969 Rise Set
Actual Time Sun does not rise Sun does not rise
Civil Twilight Sun does not rise Sun does not rise
Nautical Twilight Sun does not rise Sun does not rise
Astronomical Twilight Sun does not rise Sun does not rise
Moon No Moon Rise No Moon Set
Length of Visible Light 24h 00m
Length of Day
24h 00m
Waning Crescent, 9% of the Moon is Illuminated
Aug 3
Waning Crescent
Aug 6
New
Aug 14
First Quarter
Aug 20
Full
Aug 28
Last Quarter

Hourly Weather History & Observations

Time (MDT) Temp. Windchill Dew Point Humidity Pressure Visibility Wind Dir Wind Speed Gust Speed Precip Events Conditions
12:00 AM 33 °F - 29 °F 80% 30.09 in - East 3.5 mph - -  
12:00 AM 33.1 °F 28.7 °F 29.1 °F 85% 30.09 in - East 4.6 mph - N/A   Unknown
1:00 AM 33.1 °F 30.0 °F 29.7 °F 87% 30.09 in - ESE 3.5 mph - N/A   Unknown
2:00 AM 32.7 °F 28.3 °F 29.7 °F 88% 30.10 in - SSE 4.6 mph - N/A   Unknown
3:00 AM 32.5 °F 28.1 °F 28.9 °F 87% 30.09 in - SE 4.6 mph - N/A   Unknown
4:00 AM 32.7 °F 29.6 °F 28.9 °F 86% 30.09 in - SE 3.5 mph - N/A   Unknown
5:00 AM 33.3 °F 30.2 °F 29.8 °F 87% 30.09 in - SSW 3.5 mph - N/A   Unknown
6:00 AM 32 °F - 31 °F 92% 30.09 in - WSW 5.8 mph - -  
6:00 AM 32.4 °F 26.9 °F 30.6 °F 93% 30.09 in - SW 5.8 mph - N/A   Unknown
7:00 AM 32.9 °F - 29.8 °F 88% 30.08 in - South 2.3 mph - N/A   Unknown
8:00 AM 34.0 °F 28.8 °F 30.4 °F 87% 30.08 in - SSE 5.8 mph - N/A   Unknown
9:00 AM 34.3 °F 25.9 °F 30.7 °F 87% 30.06 in - SSW 11.5 mph - N/A   Unknown
10:00 AM 34.0 °F 26.0 °F 31.3 °F 90% 30.06 in - SSW 10.4 mph - N/A   Unknown
11:00 AM 34.0 °F 25.5 °F 31.5 °F 90% 30.06 in - South 11.5 mph - N/A   Unknown
12:00 PM 34 °F - 31 °F 86% 30.06 in - South 13.8 mph - -  
12:00 PM 33.8 °F 24.3 °F 31.6 °F 92% 30.06 in - South 13.8 mph - N/A   Unknown
1:00 PM 34.2 °F 24.8 °F 31.5 °F 90% 30.05 in - South 13.8 mph - N/A   Unknown
2:00 PM 34.3 °F 24.2 °F 31.6 °F 90% 30.05 in - South 16.1 mph - N/A   Unknown
3:00 PM 34.5 °F 24.8 °F 31.1 °F 87% 30.04 in - South 15.0 mph - N/A   Unknown
4:00 PM 35.2 °F 27.6 °F 32.2 °F 89% 30.04 in - South 10.4 mph - N/A   Unknown
5:00 PM 35.1 °F 25.2 °F 32.2 °F 89% 30.04 in - South 16.1 mph - N/A   Unknown
6:00 PM 35 °F - 32 °F 84% 30.03 in - South 18.4 mph - -  
6:00 PM 35.1 °F 24.1 °F 32.2 °F 89% 30.03 in - South 19.6 mph - N/A   Unknown
7:00 PM 35.1 °F 23.8 °F 32.0 °F 89% 30.02 in - South 20.7 mph - N/A   Unknown
8:00 PM 34.0 °F 22.7 °F 32.4 °F 94% 30.01 in - South 19.6 mph - N/A   Unknown
9:00 PM 33.6 °F 21.6 °F 32.9 °F 97% 30.00 in - South 21.9 mph - N/A   Unknown
10:00 PM 33.1 °F 21.5 °F 32.7 °F 99% 29.99 in - South 19.6 mph 25.3 mph N/A   Unknown
11:00 PM 32.9 °F 21.3 °F 32.9 °F 100% 29.99 in - South 19.6 mph - N/A   Unknown